Time,TemperatureF,DewpointF,PressureIn,WindDirection,WindDirectionDegrees,WindSpeedMPH,WindSpeedGustMPH,Humidity,HourlyPrecipIn,Conditions,Clouds,dailyrainin,SoftwareType,DateUTC
2013-07-11 00:01:00,84.2,61.5,28.54,SE,135,1.4,1.6,46,0.00,,,0.00,Rainwise IP-100,2013-07-11 05:01:00,
2013-07-11 00:06:00,83.8,61.0,28.55,SE,135,0.0,1.6,46,0.00,,,0.00,Rainwise IP-100,2013-07-11 05:06:00,
2013-07-11 00:11:00,83.5,60.5,28.55,SE,135,0.0,0.0,46,0.00,,,0.00,Rainwise IP-100,2013-07-11 05:11:00,
2013-07-11 00:16:00,83.3,61.0,28.55,SE,135,0.0,1.4,47,0.00,,,0.00,Rainwise IP-100,2013-07-11 05:16:00,
2013-07-11 00:21:00,83.1,61.5,28.55,SE,135,0.0,0.0,48,0.00,,,0.00,Rainwise IP-100,2013-07-11 05:21:00,
2013-07-11 00:26:00,82.9,61.5,28.56,SE,135,0.0,0.0,48,0.00,,,0.00,Rainwise IP-100,2013-07-11 05:26:00,
2013-07-11 00:31:00,82.5,61.0,28.56,SE,135,0.0,0.0,48,0.00,,,0.00,Rainwise IP-100,2013-07-11 05:31:00,
2013-07-11 00:36:00,82.1,61.0,28.56,SE,135,0.0,0.0,49,0.00,,,0.00,Rainwise IP-100,2013-07-11 05:36:00,
2013-07-11 00:41:00,82.0,61.5,28.56,SE,135,0.0,0.0,50,0.00,,,0.00,Rainwise IP-100,2013-07-11 05:41:00,
2013-07-11 00:46:00,82.0,61.5,28.56,SE,135,0.0,0.0,50,0.00,,,0.00,Rainwise IP-100,2013-07-11 05:46:00,
2013-07-11 00:51:00,81.5,61.5,28.56,SE,135,0.0,0.0,50,0.00,,,0.00,Rainwise IP-100,2013-07-11 05:51:00,
2013-07-11 00:56:00,81.1,61.5,28.56,SE,135,0.0,0.0,51,0.00,,,0.00,Rainwise IP-100,2013-07-11 05:56:00,
2013-07-11 01:01:00,80.5,61.5,28.57,ESE,112,1.6,2.6,52,0.00,,,0.00,Rainwise IP-100,2013-07-11 06:01:00,
2013-07-11 01:06:00,80.6,61.5,28.56,SSE,157,1.6,5.1,52,0.00,,,0.00,Rainwise IP-100,2013-07-11 06:06:00,
2013-07-11 01:11:00,81.3,62.0,28.56,South,180,0.0,5.1,52,0.00,,,0.00,Rainwise IP-100,2013-07-11 06:11:00,
2013-07-11 01:16:00,81.4,62.0,28.57,SSE,157,2.3,3.5,52,0.00,,,0.00,Rainwise IP-100,2013-07-11 06:16:00,
2013-07-11 01:21:00,81.5,62.5,28.57,SSE,157,2.3,4.2,52,0.00,,,0.00,Rainwise IP-100,2013-07-11 06:21:00,
2013-07-11 01:26:00,81.4,62.0,28.57,SSE,157,1.6,2.3,52,0.00,,,0.00,Rainwise IP-100,2013-07-11 06:26:00,
2013-07-11 01:31:00,81.3,62.0,28.57,SSE,157,1.4,4.2,52,0.00,,,0.00,Rainwise IP-100,2013-07-11 06:31:00,
2013-07-11 01:36:00,81.2,62.0,28.57,South,180,1.6,4.4,52,0.00,,,0.00,Rainwise IP-100,2013-07-11 06:36:00,
2013-07-11 01:41:00,81.2,62.5,28.57,SSE,157,1.6,5.1,53,0.00,,,0.00,Rainwise IP-100,2013-07-11 06:41:00,
2013-07-11 01:46:00,81.3,62.5,28.57,South,180,3.5,6.1,53,0.00,,,0.00,Rainwise IP-100,2013-07-11 06:46:00,
2013-07-11 01:51:00,81.3,62.5,28.57,SSW,202,2.8,6.1,53,0.00,,,0.00,Rainwise IP-100,2013-07-11 06:51:00,
2013-07-11 01:56:00,81.2,62.5,28.57,SSE,157,3.3,5.8,53,0.00,,,0.00,Rainwise IP-100,2013-07-11 06:56:00,
2013-07-11 02:01:00,81.1,63.0,28.57,SSE,157,2.8,7.0,54,0.00,,,0.00,Rainwise IP-100,2013-07-11 07:01:00,
2013-07-11 02:06:00,81.0,63.0,28.57,SSE,157,3.3,4.4,54,0.00,,,0.00,Rainwise IP-100,2013-07-11 07:06:00,
2013-07-11 02:11:00,80.8,62.5,28.57,SSW,202,2.1,4.9,54,0.00,,,0.00,Rainwise IP-100,2013-07-11 07:11:00,
2013-07-11 02:16:00,80.7,63.0,28.57,SSE,157,3.0,4.7,55,0.00,,,0.00,Rainwise IP-100,2013-07-11 07:16:00,
2013-07-11 02:21:00,80.6,63.0,28.57,SSE,157,4.0,4.2,55,0.00,,,0.00,Rainwise IP-100,2013-07-11 07:21:00,
2013-07-11 02:26:00,80.5,63.5,28.58,SSE,157,2.1,4.7,56,0.00,,,0.00,Rainwise IP-100,2013-07-11 07:26:00,
2013-07-11 02:31:00,80.4,63.5,28.58,South,180,1.9,4.0,56,0.00,,,0.00,Rainwise IP-100,2013-07-11 07:31:00,
2013-07-11 02:36:00,80.1,63.5,28.58,SSE,157,1.2,2.6,57,0.00,,,0.00,Rainwise IP-100,2013-07-11 07:36:00,
2013-07-11 02:41:00,80.0,63.5,28.58,SSE,157,1.6,2.1,57,0.00,,,0.00,Rainwise IP-100,2013-07-11 07:41:00,
2013-07-11 02:46:00,79.9,64.0,28.58,SSE,157,2.8,3.7,58,0.00,,,0.00,Rainwise IP-100,2013-07-11 07:46:00,
2013-07-11 02:51:00,79.8,64.0,28.58,SSE,157,1.4,3.0,59,0.00,,,0.00,Rainwise IP-100,2013-07-11 07:51:00,
2013-07-11 02:56:00,79.7,64.0,28.58,South,180,1.4,3.3,59,0.00,,,0.00,Rainwise IP-100,2013-07-11 07:56:00,
2013-07-11 03:01:00,79.7,64.5,28.58,South,180,1.9,3.5,60,0.00,,,0.00,Rainwise IP-100,2013-07-11 08:01:00,
2013-07-11 03:06:00,79.6,64.5,28.58,SSE,157,1.9,3.7,60,0.00,,,0.00,Rainwise IP-100,2013-07-11 08:06:00,
2013-07-11 03:11:00,79.4,65.0,28.58,SSE,157,0.0,2.8,61,0.00,,,0.00,Rainwise IP-100,2013-07-11 08:11:00,
2013-07-11 03:16:00,79.2,65.0,28.58,SSE,157,0.0,2.1,61,0.00,,,0.00,Rainwise IP-100,2013-07-11 08:16:00,
2013-07-11 03:21:00,78.9,65.0,28.58,SSE,157,0.0,1.6,62,0.00,,,0.00,Rainwise IP-100,2013-07-11 08:21:00,
2013-07-11 03:26:00,78.7,64.5,28.58,SSE,157,0.0,1.4,62,0.00,,,0.00,Rainwise IP-100,2013-07-11 08:26:00,
2013-07-11 03:31:00,78.5,65.0,28.58,SSE,157,0.0,1.9,63,0.00,,,0.00,Rainwise IP-100,2013-07-11 08:31:00,
2013-07-11 03:36:00,78.4,65.5,28.58,SSE,157,0.0,2.1,64,0.00,,,0.00,Rainwise IP-100,2013-07-11 08:36:00,
2013-07-11 03:41:00,78.2,65.5,28.58,SE,135,0.0,2.3,64,0.00,,,0.00,Rainwise IP-100,2013-07-11 08:41:00,
2013-07-11 03:46:00,78.0,65.5,28.58,SE,135,0.0,0.0,65,0.00,,,0.00,Rainwise IP-100,2013-07-11 08:46:00,
2013-07-11 03:51:00,77.7,65.0,28.58,SE,135,0.0,0.0,65,0.00,,,0.00,Rainwise IP-100,2013-07-11 08:51:00,
2013-07-11 03:56:00,77.5,65.5,28.58,SE,135,1.6,1.9,66,0.00,,,0.00,Rainwise IP-100,2013-07-11 08:56:00,
2013-07-11 04:01:00,77.4,66.0,28.58,SE,135,0.0,1.6,67,0.00,,,0.00,Rainwise IP-100,2013-07-11 09:01:00,
2013-07-11 04:06:00,77.2,66.0,28.58,SE,135,0.0,1.4,67,0.00,,,0.00,Rainwise IP-100,2013-07-11 09:06:00,
2013-07-11 04:11:00,77.1,66.0,28.58,SE,135,0.0,1.4,68,0.00,,,0.00,Rainwise IP-100,2013-07-11 09:11:00,
2013-07-11 04:16:00,77.0,66.3,28.58,SE,135,1.4,1.4,69,0.00,,,0.00,Rainwise IP-100,2013-07-11 09:16:00,
2013-07-11 04:21:00,77.0,66.3,28.58,SE,135,1.4,2.1,69,0.00,,,0.00,Rainwise IP-100,2013-07-11 09:21:00,
2013-07-11 04:26:00,77.0,66.3,28.58,SE,135,0.0,1.9,69,0.00,,,0.00,Rainwise IP-100,2013-07-11 09:26:00,
2013-07-11 04:31:00,76.9,66.3,28.58,SE,135,0.0,2.6,69,0.00,,,0.00,Rainwise IP-100,2013-07-11 09:31:00,
2013-07-11 04:36:00,76.9,66.7,28.58,SE,135,0.0,2.3,70,0.00,,,0.00,Rainwise IP-100,2013-07-11 09:36:00,
2013-07-11 04:41:00,76.9,66.7,28.58,SE,135,0.0,1.6,70,0.00,,,0.00,Rainwise IP-100,2013-07-11 09:41:00,
2013-07-11 04:46:00,76.8,66.3,28.58,SE,135,1.2,1.9,70,0.00,,,0.00,Rainwise IP-100,2013-07-11 09:46:00,
2013-07-11 04:51:00,76.6,66.3,28.58,SE,135,1.2,1.9,71,0.00,,,0.00,Rainwise IP-100,2013-07-11 09:51:00,
2013-07-11 04:56:00,76.4,66.3,28.57,SE,135,1.2,1.9,71,0.00,,,0.00,Rainwise IP-100,2013-07-11 09:56:00,
2013-07-11 05:01:00,76.3,66.3,28.57,SSE,157,1.9,3.3,71,0.00,,,0.00,Rainwise IP-100,2013-07-11 10:01:00,
2013-07-11 05:06:00,76.3,66.7,28.57,SSE,157,1.2,2.6,72,0.00,,,0.00,Rainwise IP-100,2013-07-11 10:06:00,
2013-07-11 05:11:00,76.2,66.7,28.57,SSE,157,1.4,2.8,72,0.00,,,0.00,Rainwise IP-100,2013-07-11 10:11:00,
2013-07-11 05:16:00,76.2,66.7,28.57,SSE,157,0.0,2.3,73,0.00,,,0.00,Rainwise IP-100,2013-07-11 10:16:00,
2013-07-11 05:21:00,76.1,66.7,28.57,SSE,157,0.0,1.9,73,0.00,,,0.00,Rainwise IP-100,2013-07-11 10:21:00,
2013-07-11 05:26:00,76.0,66.7,28.57,SSE,157,1.2,2.1,73,0.00,,,0.00,Rainwise IP-100,2013-07-11 10:26:00,
2013-07-11 05:31:00,76.0,67.0,28.57,SSE,157,0.0,1.9,74,0.00,,,0.00,Rainwise IP-100,2013-07-11 10:31:00,
2013-07-11 05:35:00,76.0,67.0,28.57,SSE,157,0.0,1.6,74,0.00,,,0.00,Rainwise IP-100,2013-07-11 10:35:00,
2013-07-11 05:40:00,75.8,67.0,28.57,SSE,157,0.0,1.2,74,0.00,,,0.00,Rainwise IP-100,2013-07-11 10:40:00,
2013-07-11 05:45:00,75.6,66.7,28.57,SSE,157,0.0,1.2,74,0.00,,,0.00,Rainwise IP-100,2013-07-11 10:45:00,
2013-07-11 05:50:00,75.5,66.7,28.58,SSE,157,0.0,1.4,74,0.00,,,0.00,Rainwise IP-100,2013-07-11 10:50:00,
2013-07-11 05:55:00,75.3,66.7,28.57,SSE,157,0.0,1.2,74,0.00,,,0.00,Rainwise IP-100,2013-07-11 10:55:00,
2013-07-11 06:00:00,75.3,67.0,28.57,SSE,157,0.0,0.0,75,0.00,,,0.00,Rainwise IP-100,2013-07-11 11:00:00,
2013-07-11 06:05:00,75.3,67.0,28.57,SSE,157,0.0,0.0,75,0.00,,,0.00,Rainwise IP-100,2013-07-11 11:05:00,
2013-07-11 06:10:00,75.1,67.0,28.57,SSE,157,1.2,1.2,76,0.00,,,0.00,Rainwise IP-100,2013-07-11 11:10:00,
2013-07-11 06:15:00,74.9,67.0,28.57,SSE,157,1.4,1.4,76,0.00,,,0.00,Rainwise IP-100,2013-07-11 11:15:00,
2013-07-11 06:20:00,74.8,66.7,28.58,SSE,157,1.4,1.9,76,0.00,,,0.00,Rainwise IP-100,2013-07-11 11:20:00,
2013-07-11 06:25:00,74.8,67.0,28.57,SSE,157,0.0,2.3,77,0.00,,,0.00,Rainwise IP-100,2013-07-11 11:25:00,
2013-07-11 06:30:00,74.8,67.0,28.58,SSE,157,0.0,1.2,77,0.00,,,0.00,Rainwise IP-100,2013-07-11 11:30:00,
2013-07-11 06:35:00,74.7,67.0,28.58,SSE,157,0.0,0.0,77,0.00,,,0.00,Rainwise IP-100,2013-07-11 11:35:00,
2013-07-11 06:40:00,74.5,67.0,28.58,SSE,157,0.0,1.2,77,0.00,,,0.00,Rainwise IP-100,2013-07-11 11:40:00,
2013-07-11 06:45:00,74.5,67.5,28.58,SSE,157,0.0,0.0,78,0.00,,,0.00,Rainwise IP-100,2013-07-11 11:45:00,
2013-07-11 06:50:00,74.4,67.0,28.58,SSE,157,0.0,0.0,78,0.00,,,0.00,Rainwise IP-100,2013-07-11 11:50:00,
2013-07-11 06:55:00,74.3,67.0,28.58,SSE,157,0.0,0.0,78,0.00,,,0.00,Rainwise IP-100,2013-07-11 11:55:00,
2013-07-11 07:00:00,74.2,67.0,28.57,SSE,157,0.0,0.0,78,0.00,,,0.00,Rainwise IP-100,2013-07-11 12:00:00,
2013-07-11 07:05:00,74.1,66.7,28.57,SSE,157,0.0,0.0,78,0.00,,,0.00,Rainwise IP-100,2013-07-11 12:05:00,
2013-07-11 07:10:00,74.1,66.7,28.57,SSE,157,0.0,0.0,78,0.00,,,0.00,Rainwise IP-100,2013-07-11 12:10:00,
2013-07-11 07:15:00,74.2,67.5,28.57,SSE,157,0.0,0.0,79,0.00,,,0.00,Rainwise IP-100,2013-07-11 12:15:00,
2013-07-11 07:20:00,74.5,68.0,28.58,SSE,157,0.0,0.0,79,0.00,,,0.00,Rainwise IP-100,2013-07-11 12:20:00,
2013-07-11 07:25:00,75.0,68.0,28.58,SSE,157,0.0,0.0,78,0.00,,,0.00,Rainwise IP-100,2013-07-11 12:25:00,
2013-07-11 07:30:00,75.4,68.0,28.58,SSE,157,0.0,0.0,78,0.00,,,0.00,Rainwise IP-100,2013-07-11 12:30:00,
2013-07-11 07:35:00,75.8,68.0,28.58,SSE,157,1.6,1.6,77,0.00,,,0.00,Rainwise IP-100,2013-07-11 12:35:00,
2013-07-11 07:40:00,76.0,67.5,28.58,SSE,157,1.2,2.8,76,0.00,,,0.00,Rainwise IP-100,2013-07-11 12:40:00,
2013-07-11 07:45:00,76.2,68.0,28.58,SSE,157,1.6,3.5,76,0.00,,,0.00,Rainwise IP-100,2013-07-11 12:45:00,
2013-07-11 07:50:00,76.5,68.0,28.58,SSE,157,2.3,3.3,75,0.00,,,0.00,Rainwise IP-100,2013-07-11 12:50:00,
2013-07-11 07:55:00,76.8,68.5,28.58,South,180,3.7,3.7,75,0.00,,,0.00,Rainwise IP-100,2013-07-11 12:55:00,
2013-07-11 08:00:00,77.0,68.5,28.58,SE,135,2.6,4.0,74,0.00,,,0.00,Rainwise IP-100,2013-07-11 13:00:00,
2013-07-11 08:05:00,77.2,68.5,28.58,SSE,157,3.7,4.7,74,0.00,,,0.00,Rainwise IP-100,2013-07-11 13:05:00,
2013-07-11 08:10:00,77.5,68.5,28.58,SE,135,1.6,4.4,73,0.00,,,0.00,Rainwise IP-100,2013-07-11 13:10:00,
2013-07-11 08:15:00,78.0,69.0,28.58,SSE,157,2.1,2.6,73,0.00,,,0.00,Rainwise IP-100,2013-07-11 13:15:00,
2013-07-11 08:20:00,78.6,69.0,28.58,South,180,2.3,3.5,72,0.00,,,0.00,Rainwise IP-100,2013-07-11 13:20:00,
2013-07-11 08:25:00,79.1,69.0,28.58,SSW,202,2.3,6.1,71,0.00,,,0.00,Rainwise IP-100,2013-07-11 13:25:00,
2013-07-11 08:30:00,79.5,69.0,28.58,South,180,2.3,5.6,70,0.00,,,0.00,Rainwise IP-100,2013-07-11 13:30:00,
2013-07-11 08:35:00,80.1,69.0,28.58,SSW,202,3.0,7.0,69,0.00,,,0.00,Rainwise IP-100,2013-07-11 13:35:00,
2013-07-11 08:40:00,80.5,69.0,28.57,SSE,157,7.0,7.0,68,0.00,,,0.00,Rainwise IP-100,2013-07-11 13:40:00,
2013-07-11 08:45:00,80.6,68.5,28.58,SSW,202,3.5,7.2,67,0.00,,,0.00,Rainwise IP-100,2013-07-11 13:45:00,
2013-07-11 08:50:00,80.9,69.3,28.58,SSW,202,2.3,4.9,67,0.00,,,0.00,Rainwise IP-100,2013-07-11 13:50:00,
2013-07-11 08:55:00,81.3,69.0,28.58,WSW,247,8.6,8.6,66,0.00,,,0.00,Rainwise IP-100,2013-07-11 13:55:00,
2013-07-11 09:00:00,81.3,69.0,28.58,WSW,247,6.8,9.3,66,0.00,,,0.00,Rainwise IP-100,2013-07-11 14:00:00,
2013-07-11 09:05:00,81.3,69.0,28.58,SW,225,6.5,7.5,66,0.00,,,0.00,Rainwise IP-100,2013-07-11 14:05:00,
2013-07-11 09:10:00,81.4,69.0,28.58,SSW,202,3.0,8.9,66,0.00,,,0.00,Rainwise IP-100,2013-07-11 14:10:00,
2013-07-11 09:15:00,81.5,69.0,28.58,SW,225,3.7,8.9,65,0.00,,,0.00,Rainwise IP-100,2013-07-11 14:15:00,
2013-07-11 09:20:00,81.8,69.0,28.58,SSE,157,2.1,6.1,65,0.00,,,0.00,Rainwise IP-100,2013-07-11 14:20:00,
2013-07-11 09:25:00,82.3,69.3,28.58,SSW,202,1.6,7.0,65,0.00,,,0.00,Rainwise IP-100,2013-07-11 14:25:00,
2013-07-11 09:30:00,82.6,69.3,28.58,SSE,157,6.3,7.9,64,0.00,,,0.00,Rainwise IP-100,2013-07-11 14:30:00,
2013-07-11 09:35:00,82.4,69.3,28.58,SSW,202,5.4,9.1,64,0.00,,,0.00,Rainwise IP-100,2013-07-11 14:35:00,
2013-07-11 09:40:00,82.3,68.5,28.58,SSW,202,4.4,8.9,63,0.00,,,0.00,Rainwise IP-100,2013-07-11 14:40:00,
2013-07-11 09:45:00,82.8,69.0,28.58,SSW,202,1.4,5.8,63,0.00,,,0.00,Rainwise IP-100,2013-07-11 14:45:00,
2013-07-11 09:50:00,83.5,69.3,28.58,SW,225,4.9,6.5,62,0.00,,,0.00,Rainwise IP-100,2013-07-11 14:50:00,
2013-07-11 09:55:00,84.1,69.3,28.58,WSW,247,4.9,9.8,61,0.00,,,0.00,Rainwise IP-100,2013-07-11 14:55:00,
2013-07-11 10:01:00,84.7,69.3,28.58,WSW,247,6.8,8.6,60,0.00,,,0.00,Rainwise IP-100,2013-07-11 15:01:00,
2013-07-11 10:06:00,84.9,69.0,28.58,WSW,247,5.8,7.5,59,0.00,,,0.00,Rainwise IP-100,2013-07-11 15:06:00,
2013-07-11 10:11:00,85.1,68.5,28.58,West,270,1.6,8.4,58,0.00,,,0.00,Rainwise IP-100,2013-07-11 15:11:00,
2013-07-11 10:16:00,85.4,69.0,28.57,West,270,5.4,8.9,58,0.00,,,0.00,Rainwise IP-100,2013-07-11 15:16:00,
2013-07-11 10:21:00,85.6,68.5,28.57,SSW,202,5.4,11.4,57,0.00,,,0.00,Rainwise IP-100,2013-07-11 15:21:00,
2013-07-11 10:26:00,86.0,69.0,28.57,WSW,247,4.9,7.5,57,0.00,,,0.00,Rainwise IP-100,2013-07-11 15:26:00,
2013-07-11 10:31:00,86.4,69.0,28.57,SSW,202,4.0,8.4,56,0.00,,,0.00,Rainwise IP-100,2013-07-11 15:31:00,
2013-07-11 10:36:00,87.0,69.0,28.57,SSE,157,4.7,7.5,55,0.00,,,0.00,Rainwise IP-100,2013-07-11 15:36:00,
2013-07-11 10:41:00,87.4,69.0,28.57,WSW,247,4.0,10.3,54,0.00,,,0.00,Rainwise IP-100,2013-07-11 15:41:00,
2013-07-11 10:46:00,87.4,69.0,28.57,WNW,292,3.7,7.7,54,0.00,,,0.00,Rainwise IP-100,2013-07-11 15:46:00,
2013-07-11 10:51:00,87.8,68.5,28.58,South,180,9.1,9.1,53,0.00,,,0.00,Rainwise IP-100,2013-07-11 15:51:00,
2013-07-11 10:56:00,88.2,68.5,28.57,WSW,247,8.2,9.1,52,0.00,,,0.00,Rainwise IP-100,2013-07-11 15:56:00,
2013-07-11 11:01:00,88.6,68.0,28.58,West,270,5.1,9.1,51,0.00,,,0.00,Rainwise IP-100,2013-07-11 16:01:00,
2013-07-11 11:06:00,88.7,68.5,28.57,SSW,202,1.9,7.2,51,0.00,,,0.00,Rainwise IP-100,2013-07-11 16:06:00,
2013-07-11 11:11:00,89.1,68.0,28.57,West,270,0.0,7.5,50,0.00,,,0.00,Rainwise IP-100,2013-07-11 16:11:00,
2013-07-11 11:16:00,89.9,68.5,28.58,SSW,202,4.4,7.5,49,0.00,,,0.00,Rainwise IP-100,2013-07-11 16:16:00,
2013-07-11 11:21:00,90.3,68.0,28.57,SSE,157,3.5,8.6,48,0.00,,,0.00,Rainwise IP-100,2013-07-11 16:21:00,
2013-07-11 11:26:00,90.5,67.5,28.57,SSE,157,4.0,7.9,47,0.00,,,0.00,Rainwise IP-100,2013-07-11 16:26:00,
2013-07-11 11:31:00,90.9,67.5,28.58,SSE,157,5.4,6.5,46,0.00,,,0.00,Rainwise IP-100,2013-07-11 16:31:00,
2013-07-11 11:36:00,91.1,67.5,28.57,WSW,247,10.3,10.3,46,0.00,,,0.00,Rainwise IP-100,2013-07-11 16:36:00,
2013-07-11 11:41:00,91.4,67.0,28.57,West,270,4.7,10.3,45,0.00,,,0.00,Rainwise IP-100,2013-07-11 16:41:00,
2013-07-11 11:46:00,91.6,66.7,28.57,West,270,5.8,8.2,44,0.00,,,0.00,Rainwise IP-100,2013-07-11 16:46:00,
2013-07-11 11:51:00,91.9,66.3,28.57,SSE,157,6.5,7.2,43,0.00,,,0.00,Rainwise IP-100,2013-07-11 16:51:00,
2013-07-11 11:56:00,92.2,66.0,28.58,WSW,247,4.4,6.8,42,0.00,,,0.00,Rainwise IP-100,2013-07-11 16:56:00,
2013-07-11 12:00:00,92.4,66.0,28.57,SSW,202,2.6,7.9,42,0.00,,,0.00,Rainwise IP-100,2013-07-11 17:00:00,
2013-07-11 12:05:00,92.8,66.3,28.57,SSW,202,4.2,6.8,42,0.00,,,0.00,Rainwise IP-100,2013-07-11 17:05:00,
2013-07-11 12:10:00,93.2,66.0,28.57,WNW,292,3.5,6.1,41,0.00,,,0.00,Rainwise IP-100,2013-07-11 17:10:00,
2013-07-11 12:15:00,93.3,66.3,28.57,SSW,202,6.3,6.3,41,0.00,,,0.00,Rainwise IP-100,2013-07-11 17:15:00,
2013-07-11 12:20:00,93.2,66.0,28.57,ESE,112,6.3,7.0,41,0.00,,,0.00,Rainwise IP-100,2013-07-11 17:20:00,
2013-07-11 12:25:00,93.3,65.5,28.57,SSE,157,2.3,7.9,40,0.00,,,0.00,Rainwise IP-100,2013-07-11 17:25:00,
2013-07-11 12:30:00,93.4,65.5,28.56,NNE,22,3.3,9.6,40,0.00,,,0.00,Rainwise IP-100,2013-07-11 17:30:00,
2013-07-11 12:35:00,93.8,65.0,28.57,South,180,10.3,10.3,39,0.00,,,0.00,Rainwise IP-100,2013-07-11 17:35:00,
2013-07-11 12:40:00,93.9,65.5,28.57,East,90,3.7,11.7,39,0.00,,,0.00,Rainwise IP-100,2013-07-11 17:40:00,
2013-07-11 12:45:00,94.0,64.5,28.57,SSW,202,3.7,7.2,38,0.00,,,0.00,Rainwise IP-100,2013-07-11 17:45:00,
2013-07-11 12:50:00,94.3,64.0,28.56,South,180,1.2,9.6,37,0.00,,,0.00,Rainwise IP-100,2013-07-11 17:50:00,
2013-07-11 12:55:00,94.6,64.5,28.56,ENE,67,5.1,7.7,37,0.00,,,0.00,Rainwise IP-100,2013-07-11 17:55:00,
2013-07-11 13:00:00,95.0,64.5,28.56,ESE,112,4.4,9.1,37,0.00,,,0.00,Rainwise IP-100,2013-07-11 18:00:00,
2013-07-11 13:05:00,94.7,64.5,28.56,SSE,157,4.2,11.4,37,0.00,,,0.00,Rainwise IP-100,2013-07-11 18:05:00,
2013-07-11 13:10:00,94.1,64.0,28.56,SSW,202,3.0,10.0,37,0.00,,,0.00,Rainwise IP-100,2013-07-11 18:10:00,
2013-07-11 13:15:00,93.7,64.5,28.56,SE,135,5.6,7.0,38,0.00,,,0.00,Rainwise IP-100,2013-07-11 18:15:00,
2013-07-11 13:20:00,93.6,64.0,28.56,SSE,157,3.0,8.9,38,0.00,,,0.00,Rainwise IP-100,2013-07-11 18:20:00,
2013-07-11 13:25:00,93.6,64.0,28.55,SSE,157,6.3,6.3,38,0.00,,,0.00,Rainwise IP-100,2013-07-11 18:25:00,
2013-07-11 13:30:00,93.9,64.0,28.55,SE,135,4.2,11.0,37,0.00,,,0.00,Rainwise IP-100,2013-07-11 18:30:00,
2013-07-11 13:35:00,93.6,64.0,28.56,SSE,157,3.5,7.7,38,0.00,,,0.00,Rainwise IP-100,2013-07-11 18:35:00,
2013-07-11 13:40:00,93.9,64.0,28.56,NNE,22,1.9,3.7,37,0.00,,,0.00,Rainwise IP-100,2013-07-11 18:40:00,
2013-07-11 13:45:00,95.0,64.5,28.55,NNW,337,1.2,4.4,37,0.00,,,0.00,Rainwise IP-100,2013-07-11 18:45:00,
2013-07-11 13:50:00,95.7,64.5,28.55,SE,135,7.0,7.0,36,0.00,,,0.00,Rainwise IP-100,2013-07-11 18:50:00,
2013-07-11 13:55:00,95.5,63.5,28.54,ESE,112,5.6,10.0,35,0.00,,,0.00,Rainwise IP-100,2013-07-11 18:55:00,
2013-07-11 14:00:00,95.1,62.5,28.54,SE,135,3.7,9.3,34,0.00,,,0.00,Rainwise IP-100,2013-07-11 19:00:00,
2013-07-11 14:05:00,95.3,62.5,28.54,NNE,22,2.6,6.8,34,0.00,,,0.00,Rainwise IP-100,2013-07-11 19:05:00,
2013-07-11 14:10:00,95.9,62.0,28.53,South,180,3.7,4.7,33,0.00,,,0.00,Rainwise IP-100,2013-07-11 19:10:00,
2013-07-11 14:15:00,96.1,62.5,28.54,SE,135,6.5,6.5,33,0.00,,,0.00,Rainwise IP-100,2013-07-11 19:15:00,
2013-07-11 14:20:00,95.7,62.0,28.53,SSE,157,4.7,12.1,33,0.00,,,0.00,Rainwise IP-100,2013-07-11 19:20:00,
2013-07-11 14:25:00,95.2,62.5,28.53,SE,135,5.1,7.7,34,0.00,,,0.00,Rainwise IP-100,2013-07-11 19:25:00,
2013-07-11 14:30:00,95.4,63.5,28.53,SSE,157,4.7,6.8,35,0.00,,,0.00,Rainwise IP-100,2013-07-11 19:30:00,
2013-07-11 14:36:00,95.7,63.0,28.53,WSW,247,6.3,6.3,34,0.00,,,0.00,Rainwise IP-100,2013-07-11 19:36:00,
2013-07-11 14:41:00,96.4,62.5,28.52,ENE,67,7.2,8.9,33,0.00,,,0.00,Rainwise IP-100,2013-07-11 19:41:00,
2013-07-11 14:46:00,97.0,62.5,28.52,East,90,2.8,10.0,32,0.00,,,0.00,Rainwise IP-100,2013-07-11 19:46:00,
2013-07-11 14:51:00,96.8,61.5,28.52,ESE,112,5.4,12.8,31,0.00,,,0.00,Rainwise IP-100,2013-07-11 19:51:00,
2013-07-11 14:56:00,96.0,61.5,28.52,South,180,0.0,8.4,32,0.00,,,0.00,Rainwise IP-100,2013-07-11 19:56:00,
2013-07-11 15:01:00,96.6,62.0,28.52,ESE,112,5.1,8.2,32,0.00,,,0.00,Rainwise IP-100,2013-07-11 20:01:00,
2013-07-11 15:06:00,98.2,62.5,28.52,ESE,112,6.8,10.0,31,0.00,,,0.00,Rainwise IP-100,2013-07-11 20:06:00,
2013-07-11 15:11:00,98.4,62.5,28.51,SE,135,6.1,13.3,31,0.00,,,0.00,Rainwise IP-100,2013-07-11 20:11:00,
2013-07-11 15:16:00,98.2,61.5,28.51,ESE,112,3.5,10.5,30,0.00,,,0.00,Rainwise IP-100,2013-07-11 20:16:00,
2013-07-11 15:21:00,97.9,61.5,28.51,SSW,202,4.7,9.6,30,0.00,,,0.00,Rainwise IP-100,2013-07-11 20:21:00,
2013-07-11 15:26:00,97.9,61.5,28.50,WNW,292,1.6,9.1,30,0.00,,,0.00,Rainwise IP-100,2013-07-11 20:26:00,
2013-07-11 15:31:00,98.4,61.5,28.50,ESE,112,5.4,6.8,30,0.00,,,0.00,Rainwise IP-100,2013-07-11 20:31:00,
2013-07-11 15:36:00,97.4,61.5,28.50,NNE,22,2.8,10.0,31,0.00,,,0.00,Rainwise IP-100,2013-07-11 20:36:00,
2013-07-11 15:41:00,97.1,61.5,28.49,East,90,2.3,5.4,31,0.00,,,0.00,Rainwise IP-100,2013-07-11 20:41:00,
2013-07-11 15:46:00,98.3,62.5,28.49,SSE,157,3.5,8.6,31,0.00,,,0.00,Rainwise IP-100,2013-07-11 20:46:00,
2013-07-11 15:51:00,98.5,62.0,28.49,SSW,202,1.6,8.4,30,0.00,,,0.00,Rainwise IP-100,2013-07-11 20:51:00,
2013-07-11 15:56:00,98.7,61.0,28.48,SSW,202,3.5,5.4,29,0.00,,,0.00,Rainwise IP-100,2013-07-11 20:56:00,
2013-07-11 16:01:00,99.3,61.5,28.48,ESE,112,5.8,11.4,29,0.00,,,0.00,Rainwise IP-100,2013-07-11 21:01:00,
2013-07-11 16:06:00,99.7,62.0,28.48,ESE,112,2.8,9.8,29,0.00,,,0.00,Rainwise IP-100,2013-07-11 21:06:00,
2013-07-11 16:11:00,99.8,61.0,28.48,SSW,202,4.9,11.9,28,0.00,,,0.00,Rainwise IP-100,2013-07-11 21:11:00,
2013-07-11 16:16:00,99.7,61.0,28.48,ESE,112,3.0,6.1,28,0.00,,,0.00,Rainwise IP-100,2013-07-11 21:16:00,
2013-07-11 16:21:00,100.0,61.0,28.48,ESE,112,2.3,7.5,28,0.00,,,0.00,Rainwise IP-100,2013-07-11 21:21:00,
2013-07-11 16:26:00,100.0,61.0,28.47,SSE,157,6.1,11.4,28,0.00,,,0.00,Rainwise IP-100,2013-07-11 21:26:00,
2013-07-11 16:31:00,99.5,60.5,28.47,ESE,112,4.2,10.0,28,0.00,,,0.00,Rainwise IP-100,2013-07-11 21:31:00,
2013-07-11 16:36:00,99.4,60.5,28.47,SSW,202,4.4,12.6,28,0.00,,,0.00,Rainwise IP-100,2013-07-11 21:36:00,
2013-07-11 16:41:00,99.4,60.5,28.47,ENE,67,3.3,9.6,28,0.00,,,0.00,Rainwise IP-100,2013-07-11 21:41:00,
2013-07-11 16:46:00,98.7,61.0,28.47,SSE,157,8.2,8.2,29,0.00,,,0.00,Rainwise IP-100,2013-07-11 21:46:00,
2013-07-11 16:51:00,98.7,61.0,28.47,ESE,112,3.3,8.2,29,0.00,,,0.00,Rainwise IP-100,2013-07-11 21:51:00,
2013-07-11 16:56:00,99.1,60.5,28.47,ESE,112,4.4,11.2,28,0.00,,,0.00,Rainwise IP-100,2013-07-11 21:56:00,
2013-07-11 17:01:00,99.0,60.5,28.47,SSE,157,1.9,13.1,28,0.00,,,0.00,Rainwise IP-100,2013-07-11 22:01:00,
2013-07-11 17:06:00,98.9,60.0,28.46,SSW,202,4.2,5.1,28,0.00,,,0.00,Rainwise IP-100,2013-07-11 22:06:00,
2013-07-11 17:11:00,99.1,60.5,28.46,ESE,112,3.5,11.9,28,0.00,,,0.00,Rainwise IP-100,2013-07-11 22:11:00,
2013-07-11 17:16:00,99.0,60.5,28.46,ENE,67,3.7,8.6,28,0.00,,,0.00,Rainwise IP-100,2013-07-11 22:16:00,
2013-07-11 17:21:00,98.5,60.0,28.46,South,180,2.6,11.2,28,0.00,,,0.00,Rainwise IP-100,2013-07-11 22:21:00,
2013-07-11 17:26:00,98.2,59.5,28.46,SSE,157,6.1,8.4,28,0.00,,,0.00,Rainwise IP-100,2013-07-11 22:26:00,
2013-07-11 17:31:00,98.6,59.0,28.45,East,90,3.0,9.3,27,0.00,,,0.00,Rainwise IP-100,2013-07-11 22:31:00,
2013-07-11 17:36:00,99.0,59.5,28.46,SSE,157,6.1,10.5,27,0.00,,,0.00,Rainwise IP-100,2013-07-11 22:36:00,
2013-07-11 17:41:00,98.9,59.0,28.45,SE,135,7.2,11.2,27,0.00,,,0.00,Rainwise IP-100,2013-07-11 22:41:00,
2013-07-11 17:46:00,98.8,59.0,28.45,ENE,67,4.7,11.9,27,0.00,,,0.00,Rainwise IP-100,2013-07-11 22:46:00,
2013-07-11 17:51:00,99.0,59.5,28.45,SSE,157,8.2,10.3,27,0.00,,,0.00,Rainwise IP-100,2013-07-11 22:51:00,
2013-07-11 17:56:00,98.9,59.0,28.45,ESE,112,5.8,14.9,27,0.00,,,0.00,Rainwise IP-100,2013-07-11 22:56:00,
2013-07-11 18:01:00,98.5,59.0,28.44,ENE,67,4.7,9.8,27,0.00,,,0.00,Rainwise IP-100,2013-07-11 23:01:00,
2013-07-11 18:06:00,97.8,58.0,28.45,ESE,112,3.0,9.6,27,0.00,,,0.00,Rainwise IP-100,2013-07-11 23:06:00,
2013-07-11 18:11:00,97.4,57.5,28.45,East,90,4.7,7.0,27,0.00,,,0.00,Rainwise IP-100,2013-07-11 23:11:00,
2013-07-11 18:16:00,97.5,58.0,28.45,ESE,112,6.8,7.0,27,0.00,,,0.00,Rainwise IP-100,2013-07-11 23:16:00,
2013-07-11 18:21:00,98.0,58.0,28.44,ESE,112,4.4,11.2,27,0.00,,,0.00,Rainwise IP-100,2013-07-11 23:21:00,
2013-07-11 18:26:00,98.2,58.0,28.44,SE,135,2.6,7.7,27,0.00,,,0.00,Rainwise IP-100,2013-07-11 23:26:00,
2013-07-11 18:32:00,98.3,59.0,28.45,ESE,112,3.3,8.4,27,0.00,,,0.00,Rainwise IP-100,2013-07-11 23:32:00,
2013-07-11 18:37:00,98.5,59.0,28.44,SSE,157,6.8,8.4,27,0.00,,,0.00,Rainwise IP-100,2013-07-11 23:37:00,
2013-07-11 18:42:00,98.7,59.0,28.44,ENE,67,4.7,9.8,27,0.00,,,0.00,Rainwise IP-100,2013-07-11 23:42:00,
2013-07-11 18:47:00,98.6,59.0,28.45,ENE,67,5.8,9.6,27,0.00,,,0.00,Rainwise IP-100,2013-07-11 23:47:00,
2013-07-11 18:52:00,98.4,59.0,28.45,SSE,157,8.4,10.5,27,0.00,,,0.00,Rainwise IP-100,2013-07-11 23:52:00,
2013-07-11 18:57:00,98.3,59.0,28.45,SE,135,4.2,10.0,27,0.00,,,0.00,Rainwise IP-100,2013-07-11 23:57:00,
2013-07-11 19:02:00,98.3,59.0,28.44,SE,135,2.8,8.4,27,0.00,,,0.00,Rainwise IP-100,2013-07-12 00:02:00,
2013-07-11 19:07:00,97.9,58.0,28.45,SSE,157,4.2,10.7,27,0.00,,,0.00,Rainwise IP-100,2013-07-12 00:07:00,
2013-07-11 19:12:00,97.6,58.0,28.45,ENE,67,4.0,12.6,27,0.00,,,0.00,Rainwise IP-100,2013-07-12 00:12:00,
2013-07-11 19:17:00,97.5,58.0,28.45,ESE,112,4.7,8.6,27,0.00,,,0.00,Rainwise IP-100,2013-07-12 00:17:00,
2013-07-11 19:22:00,97.4,57.5,28.45,South,180,6.1,9.6,27,0.00,,,0.00,Rainwise IP-100,2013-07-12 00:22:00,
2013-07-11 19:27:00,97.1,59.0,28.45,SSE,157,3.3,11.4,28,0.00,,,0.00,Rainwise IP-100,2013-07-12 00:27:00,
2013-07-11 19:32:00,96.8,58.0,28.45,ESE,112,1.9,10.7,28,0.00,,,0.00,Rainwise IP-100,2013-07-12 00:32:00,
2013-07-11 19:37:00,96.7,58.0,28.45,East,90,4.4,10.5,28,0.00,,,0.00,Rainwise IP-100,2013-07-12 00:37:00,
2013-07-11 19:42:00,96.4,57.5,28.46,ESE,112,5.8,11.7,28,0.00,,,0.00,Rainwise IP-100,2013-07-12 00:42:00,
2013-07-11 19:47:00,96.2,57.5,28.45,ESE,112,4.0,11.7,28,0.00,,,0.00,Rainwise IP-100,2013-07-12 00:47:00,
2013-07-11 19:52:00,95.9,57.5,28.45,ESE,112,4.2,6.5,28,0.00,,,0.00,Rainwise IP-100,2013-07-12 00:52:00,
2013-07-11 19:57:00,95.6,58.0,28.45,SE,135,2.8,7.5,29,0.00,,,0.00,Rainwise IP-100,2013-07-12 00:57:00,
2013-07-11 20:02:00,95.3,58.0,28.45,SSE,157,6.3,6.5,29,0.00,,,0.00,Rainwise IP-100,2013-07-12 01:02:00,
2013-07-11 20:07:00,95.1,57.5,28.45,ESE,112,2.1,9.8,29,0.00,,,0.00,Rainwise IP-100,2013-07-12 01:07:00,
2013-07-11 20:12:00,94.9,57.5,28.46,ESE,112,5.1,6.1,29,0.00,,,0.00,Rainwise IP-100,2013-07-12 01:12:00,
2013-07-11 20:17:00,94.7,59.0,28.45,ESE,112,5.4,9.8,30,0.00,,,0.00,Rainwise IP-100,2013-07-12 01:17:00,
2013-07-11 20:22:00,94.5,58.0,28.45,SE,135,2.8,7.0,30,0.00,,,0.00,Rainwise IP-100,2013-07-12 01:22:00,
2013-07-11 20:27:00,94.3,58.0,28.45,SE,135,3.5,7.2,30,0.00,,,0.00,Rainwise IP-100,2013-07-12 01:27:00,
2013-07-11 20:32:00,94.1,58.0,28.46,ESE,112,4.2,7.2,30,0.00,,,0.00,Rainwise IP-100,2013-07-12 01:32:00,
2013-07-11 20:37:00,93.9,57.5,28.45,SE,135,4.9,9.8,30,0.00,,,0.00,Rainwise IP-100,2013-07-12 01:37:00,
2013-07-11 20:42:00,93.7,59.0,28.46,ESE,112,1.9,9.6,31,0.00,,,0.00,Rainwise IP-100,2013-07-12 01:42:00,
2013-07-11 20:47:00,93.4,58.0,28.47,ESE,112,4.4,6.5,31,0.00,,,0.00,Rainwise IP-100,2013-07-12 01:47:00,
2013-07-11 20:52:00,93.1,58.0,28.46,ESE,112,2.6,8.4,31,0.00,,,0.00,Rainwise IP-100,2013-07-12 01:52:00,
2013-07-11 20:57:00,92.9,59.0,28.47,ESE,112,3.0,10.7,32,0.00,,,0.00,Rainwise IP-100,2013-07-12 01:57:00,
2013-07-11 21:02:00,92.8,59.0,28.47,SSE,157,5.6,8.9,32,0.00,,,0.00,Rainwise IP-100,2013-07-12 02:02:00,
2013-07-11 21:07:00,92.7,59.0,28.47,ESE,112,3.5,7.2,32,0.00,,,0.00,Rainwise IP-100,2013-07-12 02:07:00,
2013-07-11 21:12:00,92.6,58.0,28.47,ESE,112,5.6,7.7,32,0.00,,,0.00,Rainwise IP-100,2013-07-12 02:12:00,
2013-07-11 21:17:00,92.3,59.0,28.47,SE,135,4.0,9.1,33,0.00,,,0.00,Rainwise IP-100,2013-07-12 02:17:00,
2013-07-11 21:22:00,92.0,59.0,28.48,ESE,112,1.9,7.7,33,0.00,,,0.00,Rainwise IP-100,2013-07-12 02:22:00,
2013-07-11 21:27:00,91.7,59.0,28.48,East,90,5.4,5.6,33,0.00,,,0.00,Rainwise IP-100,2013-07-12 02:27:00,
2013-07-11 21:32:00,91.4,59.5,28.47,ESE,112,8.2,8.2,34,0.00,,,0.00,Rainwise IP-100,2013-07-12 02:32:00,
2013-07-11 21:37:00,91.3,59.0,28.48,East,90,6.5,10.0,34,0.00,,,0.00,Rainwise IP-100,2013-07-12 02:37:00,
2013-07-11 21:42:00,91.1,59.0,28.48,ESE,112,2.8,6.5,34,0.00,,,0.00,Rainwise IP-100,2013-07-12 02:42:00,
2013-07-11 21:47:00,90.8,59.0,28.48,East,90,2.1,4.7,34,0.00,,,0.00,Rainwise IP-100,2013-07-12 02:47:00,
2013-07-11 21:52:00,90.6,58.0,28.48,ESE,112,5.4,6.3,34,0.00,,,0.00,Rainwise IP-100,2013-07-12 02:52:00,
2013-07-11 21:57:00,90.5,58.0,28.48,ENE,67,2.8,5.8,34,0.00,,,0.00,Rainwise IP-100,2013-07-12 02:57:00,
2013-07-11 22:02:00,90.4,59.0,28.48,ESE,112,4.9,12.1,35,0.00,,,0.00,Rainwise IP-100,2013-07-12 03:02:00,
2013-07-11 22:07:00,90.0,59.5,28.48,East,90,3.3,13.3,36,0.00,,,0.00,Rainwise IP-100,2013-07-12 03:07:00,
2013-07-11 22:12:00,89.6,60.5,28.48,East,90,1.9,8.4,38,0.00,,,0.00,Rainwise IP-100,2013-07-12 03:12:00,
2013-07-11 22:17:00,89.0,61.5,28.49,East,90,7.0,8.6,40,0.00,,,0.00,Rainwise IP-100,2013-07-12 03:17:00,
2013-07-11 22:22:00,88.5,62.0,28.49,ENE,67,7.2,7.7,41,0.00,,,0.00,Rainwise IP-100,2013-07-12 03:22:00,
2013-07-11 22:27:00,88.1,62.0,28.49,ENE,67,0.0,7.2,42,0.00,,,0.00,Rainwise IP-100,2013-07-12 03:27:00,
2013-07-11 22:32:00,87.7,62.0,28.49,ESE,112,3.0,7.2,42,0.00,,,0.00,Rainwise IP-100,2013-07-12 03:32:00,
2013-07-11 22:37:00,87.4,62.0,28.49,East,90,4.9,6.5,43,0.00,,,0.00,Rainwise IP-100,2013-07-12 03:37:00,
2013-07-11 22:42:00,87.2,62.5,28.49,SE,135,3.7,8.4,44,0.00,,,0.00,Rainwise IP-100,2013-07-12 03:42:00,
2013-07-11 22:47:00,87.0,62.5,28.49,East,90,4.0,8.4,44,0.00,,,0.00,Rainwise IP-100,2013-07-12 03:47:00,
2013-07-11 22:52:00,86.7,62.0,28.49,ENE,67,1.6,6.3,44,0.00,,,0.00,Rainwise IP-100,2013-07-12 03:52:00,
2013-07-11 22:57:00,86.7,62.0,28.50,ENE,67,3.7,6.1,44,0.00,,,0.00,Rainwise IP-100,2013-07-12 03:57:00,
2013-07-11 23:01:00,86.8,61.5,28.50,ESE,112,2.1,6.5,43,0.00,,,0.00,Rainwise IP-100,2013-07-12 04:01:00,
2013-07-11 23:06:00,86.8,61.5,28.50,ESE,112,0.0,6.5,43,0.00,,,0.00,Rainwise IP-100,2013-07-12 04:06:00,
2013-07-11 23:11:00,86.6,61.5,28.50,ESE,112,1.4,3.5,43,0.00,,,0.00,Rainwise IP-100,2013-07-12 04:11:00,
2013-07-11 23:16:00,86.4,61.5,28.50,SSE,157,2.1,3.3,43,0.00,,,0.00,Rainwise IP-100,2013-07-12 04:16:00,
2013-07-11 23:21:00,86.4,61.5,28.50,ESE,112,1.9,6.8,43,0.00,,,0.00,Rainwise IP-100,2013-07-12 04:21:00,
2013-07-11 23:26:00,86.4,61.5,28.50,ESE,112,1.6,3.5,43,0.00,,,0.00,Rainwise IP-100,2013-07-12 04:26:00,
2013-07-11 23:31:00,86.3,61.0,28.50,ESE,112,0.0,4.0,43,0.00,,,0.00,Rainwise IP-100,2013-07-12 04:31:00,
2013-07-11 23:36:00,86.1,61.0,28.51,ESE,112,0.0,3.5,43,0.00,,,0.00,Rainwise IP-100,2013-07-12 04:36:00,
2013-07-11 23:41:00,85.9,61.0,28.50,ESE,112,1.6,2.3,43,0.00,,,0.00,Rainwise IP-100,2013-07-12 04:41:00,
2013-07-11 23:46:00,85.6,60.5,28.51,East,90,1.6,2.8,43,0.00,,,0.00,Rainwise IP-100,2013-07-12 04:46:00,
2013-07-11 23:51:00,85.4,60.5,28.51,East,90,1.9,2.3,43,0.00,,,0.00,Rainwise IP-100,2013-07-12 04:51:00,
2013-07-11 23:56:00,85.2,60.0,28.51,East,90,0.0,2.6,43,0.00,,,0.00,Rainwise IP-100,2013-07-12 04:56:00,